Regional Weather Roundup
Issued by NWS Upton, NY

Current Version | Previous Version | Text Only | Print | Product List | Glossary On
Versions: 1 2 3 4 5 6 7 8 9 10 11 12 13 14 15 16 17 18 19 20 21 22 23 24 25 26 27 28 29 30 31 32 33 34 35 36 37 38 39 40 41 42 43 44 45 46 47 48 49 50
000
ASUS41 KOKX 242308
RWROKX

REGIONAL WEATHER ROUNDUP
NATIONAL WEATHER SERVICE NEW YORK NY
700 PM EDT FRI MAR 24 2017

NOTE: "FAIR" INDICATES FEW OR NO CLOUDS BELOW 12,000 FEET WITH NO
SIGNIFICANT WEATHER AND/OR OBSTRUCTIONS TO VISIBILITY.

NYZ071-072-176-178-NJZ106-104-250000-
NEW YORK CITY METRO AREA

CITY           SKY/WX    TMP DP  RH WIND       PRES   REMARKS
Central Park   PTCLDY    56  34  43 MISG      30.13F
Wall St Helipt PTCLDY    54  35  48 W12       30.13S
LaGuardia APRT MOCLDY    52  36  54 SE9       30.11F
Kennedy INTL   MOCLDY    46  39  76 S13       30.13F
Breezy Point     N/A     48 N/A N/A S3          N/A
Newark/Liberty MOCLDY    57  35  43 SW13      30.11F
Teterboro      PTCLDY    56  36  47 W12G20    30.11S
$$

NYZ177-179-078>081-250000-
LONG ISLAND NEW YORK

CITY           SKY/WX    TMP DP  RH WIND       PRES   REMARKS
Jones Beach      N/A     45 N/A N/A SW14G22     N/A
Matinecock PT    N/A     52 N/A N/A S6G12       N/A
Farmingdale    CLOUDY    46  36  68 SW9       30.13F
MacArthur/ISP  CLOUDY    46  35  65 SW12      30.13F
Shirley        CLOUDY    45  35  68 SW10G21   30.16F
Westhampton    CLOUDY    44  33  65 SW13G18   30.17F
East Hampton   CLOUDY    44  33  64 SW9G18    30.14F
Montauk          N/A     45  33  63 SW13G21   30.16F
$$

NYZ052-065-067-250000-
HUDSON VALLEY

CITY           SKY/WX    TMP DP  RH WIND       PRES   REMARKS
White Plains   CLOUDY    47  30  51 SE5       30.10F
Newburgh       MOCLDY    46  34  61 CALM      30.10F
Montgomery     CLEAR     45  32  60 W3        30.09S
Poughkeepsie   PTCLDY    45  32  60 CALM      30.11S
Albany         CLOUDY    40  31  70 S13G21    30.04S WCI  32
$$

NJZ001-105-106-008-010-013-015-019>022-104-250000-
NEW JERSEY

CITY           SKY/WX    TMP DP  RH WIND       PRES   REMARKS
Newark/Liberty MOCLDY    57  35  43 SW13      30.11F
Teterboro      PTCLDY    56  36  47 W12G20    30.11S
Caldwell       PTCLDY    54  34  46 VRB3      30.11F
Somerville     CLEAR     54  36  50 VRB6      30.11S
Linden           N/A     56  34  42 W7        30.12F
Sussex         CLEAR     48  33  56 CALM      30.10F
Andover          N/A     47  33  58 S3        30.10F
Trenton        PTCLDY    55  33  43 SW13G20   30.14R
Millville      CLOUDY    55  34  45 VRB6      30.17F
Atlantic City  CLEAR     52  38  58 S8        30.18F
Wrightstown    CLOUDY    57  33  41 SW15G23   30.12R
Toms River     PTCLDY    57  33  40 SW14G22   30.16R
Belmar         CLOUDY    58  33  39 SW14G25   30.14S
$$

PAZ047>061-062-071-250000-
EASTERN PENNSYLVANIA

CITY           SKY/WX    TMP DP  RH WIND       PRES   REMARKS
Philadelphia   CLOUDY    56  32  40 SW13      30.17S
Allentown      CLEAR     54  36  50 S7        30.12S
Scranton       MOCLDY    48  36  63 CALM      30.06F
$$

CTZ002-004>006-009-010-012-RIZ004-006-007-MAZ004-011-015-250000-
SOUTHERN NEW ENGLAND
 IN CT

CITY           SKY/WX    TMP DP  RH WIND       PRES   REMARKS
Bradley INTL   CLOUDY    44  30  57 S13       30.09F
Hartford       CLOUDY    44  30  57 S8        30.11F
Danbury        PTCLDY    47  30  51 S3        30.11F
Wtrbury/Oxford MOCLDY    45  27  49 SW7       30.10F
Bridgeport     MOCLDY    46  33  60 CALM      30.13F
Meriden        CLOUDY    46  29  51 S6        30.11F
New Haven      MOCLDY    43  32  65 S3        30.13F
Chester        NOT AVBL
Groton         CLOUDY    42  34  73 S6        30.14F
Wilimantic     CLOUDY    46  28  49 S8        30.11F

 IN RI

CITY           SKY/WX    TMP DP  RH WIND       PRES   REMARKS
Providence     CLOUDY    45  27  49 SW13      30.11F
Block Island   CLOUDY    44  35  70 SW15      30.15F
Westerly       CLOUDY    45  33  63 SW13G20   30.15F
 IN MA

CITY           SKY/WX    TMP DP  RH WIND       PRES   REMARKS
Boston         CLOUDY    43  28  55 SW15      30.07F
Worcester      CLEAR     39  27  62 SW13      30.03F WCI  31
Westfield      CLOUDY    43  30  60 S9        30.07S
Provincetown   CLOUDY    42  34  73 SW23G29   30.09F
Nantucket      CLOUDY    42  37  82 S14       30.17F
$$

ANZ330-335-338-340-345-350-353-355-250000-
COASTAL MARINE OBSERVATIONS


STATION/POSITION TIME  SKY/WX   TEMP    WIND        PRES    VSBY  WAVE
                                AIR SEA DIR/SP/G                  HT/PER
                 (UTC)          (F)     (DEG/KT/KT) (MB)    (MI)  (FT/S)
NY HARB ENTRANCE 2150            44 41  200/ 21/ 27 1020.0          6/ 6
20 S FIRE ISLAND 2250            45 40  220/ 19/ 23 1020.7          7/ 6
GREAT SOUTH BAY  NOT AVBL
23 SSW MONTAUK P 2150            46 43              1021.5          7/ 6
15 E BARNEGAT LI 2230               43                N/A           6/ 6
HUDSON CANYON    2250            49 45  210/ 21/ 27 1022.4          6/ 6
KINGS POINT      2230            48 39              1019.6
EXECUTION ROCKS  NOT AVBL
CENTRAL LI SOUND 2230            42     220/ 10/ 12   N/A           1/ 4
EASTERN LI SOUND NOT AVBL
ROBBINS REEF     2230            57     250/ 10/ 12 1020.0
$$


>>>>>>>>>>>>>>>>>>>>>>>>>>>> KEY <<<<<<<<<<<<<<<<<<<<<<<<<<<
>                                                          <
>     SKY/WX - Sky Condition/Present Weather               <
>     TMP    - Temperature in Fahrenheit                   <
>     DP     - Dew Point in Fahrenheit                     <
>     RH     - Relative Humidity in Percent                <
>     WIND   - Direction (from) and Speed in MPH           <
>     PRES   - Mean Sea Level Pressure (inches of Hg)      <
>     WCI    - Wind Chill Index                            <
>     VSB    - VISIBILITY IN MILES                         <
>     HX     - HEAT INDEX                                  <
>     TC     - TEMPERATURE IN CELSIUS                      <
>     VRB    - VARIABLE WIND DIRECTION                     <
>                                                          <
>>>>>>>>>>>>>>>>>>>>>>>>>>>> KEY <<<<<<<<<<<<<<<<<<<<<<<<<<<



USA.gov is the U.S. government's official web portal to all federal, state and local government web resources and services.